Skip Page Navigation
NASA JPL Caltech
NASA Logo - Jet Propulsion Laboratory + View the NASA Portal
+ Center for Near-Earth Object Studies
JPL Home Earth Solar System Stars & Galaxies Technology
JPL Solar System Dynamics
BODIES ORBITS EPHEMERIDES TOOLS PHYSICAL DATA DISCOVERY FAQ SITE MAP
IMPORTANT: The SSD Announcement email list is now available. Major changes are coming in the near future, including possible hostname and/or URL changes. To be notified of such changes, subscribe to this email list.

Please visit this page for more details.


JPL Small-Body Database Browser
Search: [ help ]  
359965 (2012 BA97)
Classification: Jupiter Trojan          SPK-ID: 2359965
Ephemeris | Orbit Diagram | Orbital Elements | Mission Design | Physical Parameters | Discovery Circumstances ]

[ show orbit diagram ]
Orbital Elements at Epoch 2458600.5 (2019-Apr-27.0) TDB
Reference: JPL 11 (heliocentric ecliptic J2000)
 Element Value Uncertainty (1-sigma)   Units 
e .01800280344959734 1.3341e-07  
a 5.196264333314703 3.087e-07 au
q 5.102717007849885 9.1169e-07 au
i 9.745843077920281 1.045e-05 deg
node 23.80766432242625 4.4097e-05 deg
peri 350.4398829082222 0.00022195 deg
M 325.5820507795015 0.00021391 deg
tp 2459014.135465787653
(2020-Jun-13.63546579)
0.0025542 TDB
period 4326.485774314192
11.85
0.00038554
1.056e-06
d
yr
n .08320840949883049 7.4149e-09 deg/d
Q 5.289811658779521 3.1426e-07 au
  Orbit Determination Parameters
   # obs. used (total)      133  
   data-arc span      4423 days (12.11 yr)  
   first obs. used      2007-09-13  
   last obs. used      2019-10-23  
   planetary ephem.      DE431  
   SB-pert. ephem.      SB431-N16  
   condition code      0  
   norm. resid. RMS      .53247  
   source      ORB  
   producer      Otto Matic  
   solution date      2019-Nov-08 11:18:46  

Additional Information
 Earth MOID = 4.10316 au 
 Jupiter MOID = .146482 au 
 T_jup = 2.971 
[ show covariance matrix ]

Ephemeris | Orbit Diagram | Orbital Elements | Mission Design | Physical Parameters | Discovery Circumstances ]

Physical Parameter Table
Parameter Symbol Value Units Sigma Reference Notes
absolute magnitude H 13.5   n/a MPO455598  

359965 (2012 BA97)          Discovered 2008-Sep-24 by Spacewatch at Kitt Peak
Reference: 20130327/Numbers.arcLast Updated: 2013-03-29
Ephemeris | Orbit Diagram | Orbital Elements | Mission Design | Physical Parameters | Discovery Circumstances ]
ABOUT SSD CREDITS/AWARDS PRIVACY/COPYRIGHT GLOSSARY LINKS
FirstGov
(server date/time)  
NASA Home Page
Site Manager:   Ryan S. Park
Webmaster  Alan B. Chamberlin